Location: Bouchavesnes-Bergen
(49.9859°N, 2.9203°E)
Time: 04:49:43
(UTC+00:00)

Cosmos 2221 - Visible Passes

Search period start: 15 June 2021 00:00
Search period end: 25 June 2021 00:00
Orbit: 593 x 615 km, 82.5° (Epoch: 14 June)

Date Brightness Start Highest point End Pass type
(mag) Time Alt. Az. Time Alt. Az. Time Alt. Az.
15 Jun 3.9 00:55:48 10° N 00:59:47 35° ENE 01:03:44 10° SE visible
15 Jun 3.7 02:33:37 10° NNW 02:37:12 26° W 02:40:45 10° SW visible
16 Jun 3.1 01:08:13 10° N 01:12:29 55° ENE 01:16:17 12° SSE visible
16 Jun 4.3 02:46:48 10° NW 02:49:36 17° W 02:52:23 10° SW visible
16 Jun 5.2 23:45:16 10° NE 23:46:49 12° ENE 23:48:21 10° E visible
17 Jun 2.5 01:20:46 10° N 01:25:07 87° E 01:28:28 16° S visible
17 Jun 4.9 23:56:49 10° NNE 23:59:42 17° ENE 00:02:34 10° ESE visible
18 Jun 2.6 01:33:26 10° NNW 01:37:41 59° W 01:40:42 18° S visible
19 Jun 4.3 00:08:55 10° NNE 00:12:31 25° ENE 00:16:05 10° SE visible
19 Jun 3.3 01:46:13 10° NNW 01:50:11 37° W 01:52:57 17° SSW visible
20 Jun 3.6 00:21:14 10° N 00:25:16 38° ENE 00:28:24 15° SE visible
20 Jun 3.9 01:59:10 10° NW 02:02:38 24° W 02:05:13 14° SW visible
21 Jun 2.9 00:33:41 10° N 00:37:57 60° ENE 00:40:40 21° SSE visible
21 Jun 4.4 02:12:26 10° NW 02:15:00 16° W 02:17:30 10° WSW visible
21 Jun 5.0 23:10:28 10° NE 23:12:20 12° ENE 23:14:12 10° E visible
22 Jun 2.4 00:46:15 10° N 00:50:34 86° W 00:52:59 25° S visible
22 Jun 4.7 23:22:10 10° NNE 23:25:12 18° ENE 23:28:13 10° ESE visible
23 Jun 2.8 00:58:55 10° NNW 01:03:07 53° W 01:05:19 26° SSW visible
23 Jun 4.1 23:34:18 10° N 23:38:00 27° ENE 23:40:49 14° ESE visible
24 Jun 3.4 01:11:44 10° NNW 01:15:37 34° W 01:17:39 22° SW visible
24 Jun 3.4 23:46:39 10° N 23:50:44 41° ENE 23:53:10 21° SE visible
